Other Surface Observations
Issued by NWS Tucson, AZ

Home | Current Version | Previous Version | Text Only | Print | Product List | Glossary On
Versions: 1 2 3 4 5 6 7 8 9 10 11 12 13 14 15 16 17 18 19 20 21 22 23 24 25 26 27 28 29 30 31 32 33 34 35 36 37 38 39 40 41 42 43 44 45 46 47 48 49 50
982
SXUS55 KTWC 281215
OSOTWC

WEATHER ROUNDUP FOR SOUTHEAST ARIZONA
NATIONAL WEATHER SERVICE TUCSON AZ
515 AM MST FRI APR 28 2017

AZZ504>506-514-281315-
LOCATION       SKY/WX    TMP DP  RH WIND       PRES   REMARKS
TUCSON         CLOUDY    69  42  37 SW8       29.70F
DAVIS-MONTHAN  MOCLDY    67  42  39 SW3       29.70S
CHILDRENS PARK N/A      N/A N/A  39 E5                PIMA CO DEQ
ALVERNON/22ND  N/A       70 N/A N/A S3                PIMA CO DEQ
CHERRY/GLENN   N/A      N/A N/A N/A N/A               PIMA CO DEQ
TANGERINE      N/A       69 N/A N/A S5                PIMA CO DEQ
CONTL RANCH    N/A       71  42  35 S7                PIMA CO DEQ
GRANT/1ST      N/A       70  43  38 SE4               PIMA CO DEQ
CRAYCROFT/22ND N/A       70  43  37 N/A               PIMA CO DEQ
GOLFLINKS/KOLB N/A      N/A N/A N/A N/A               PIMA CO DEQ
AJO/12TH       N/A       70  43  38 S10               PIMA CO DEQ
FAIRGROUNDS    N/A       65 N/A N/A S3                PIMA CO DEQ
SAGUARO        N/A       64  42  45 N3                *SABINO CYN
SAN CARLOS     N/A       69  41  36 SW7G11            *SAN CARLOS
GREEN VALLEY   N/A       67  41  38 SW12              PIMA CO DEQ
HORSE CAMP CYN N/A       63  35  35 SW14G21           *ARAVAIPA CYN
RINCON MTNS    N/A       42  35  75 W4G16             *NR MANNING CAMP
$$

AZZ509>511-281315-
LOCATION       SKY/WX    TMP DP  RH WIND       PRES   REMARKS
SAFFORD        CLOUDY    68  37  32 NW8       29.66R
STRAY HORSE    N/A       46  34  62 N/A               *
TRAIL CABIN    N/A       55  36  49 W6G14             *N OF GRANVILLE
BLACK HILLS    NOT AVBL
DRY LAKE       N/A       47  34  61 W8G19             *NATANES MTNS
NOON CREEK     N/A       61  38  42 SW3G14            *PINALENO MTNS
COLUMBINE      N/A       38  36  91 SW9G17            *PINALENO MTNS
GUTHRIE        N/A       54  35  48 W9G19             *SW OF GUTHRIE
$$

AZZ502-503-513-281315-
LOCATION       SKY/WX    TMP DP  RH WIND       PRES   REMARKS
NOGALES        MOCLDY    60  41  49 S10       29.78R
SELLS          N/A       68  45  43 SE9G13            *
SASABE         N/A       59  44  57 SW5               *ALTAR VLY
HOPKINS        N/A       48  36  62 SW6G11            *SANTA RITA MTNS
CARR CYN       N/A       56  37  49 N3G10             *W OF HEREFORD
$$

AZZ507-508-512-281315-
LOCATION       SKY/WX    TMP DP  RH WIND       PRES   REMARKS
SIERRA VISTA   MOCLDY    62  36  38 SW16      29.79S
DOUGLAS        MOCLDY    62  39  42 S14       29.79F
EMPIRE MTNS    NOT AVBL
MULESHOE RANCH N/A       60  40  47 NW8G14            *PRESERVE
HEADQUARTERS   NOT AVBL
$$

.............................NOTES.............................
THIS IS AN AUTOMATED COLLECTIVE WITH MINIMAL QUALITY CONTROL.
PIMA CO DEQ SITES HAVE NONSTANDARD WIND SENSOR HEIGHTS.
PIMA CO DEQ SITES DO NOT REPORT WIND GUSTS.
* INDICATES WIND SENSORS LOCATED AT 20 FEET INSTEAD OF 33 FEET.
..............................KEY..............................
SKY/WX - SKY CONDITION/WEATHER
TMP    - TEMPERATURE IN FAHRENHEIT
DP     - DEWPOINT IN FAHRENHEIT
RH     - RELATIVE HUMIDITY IN PERCENT
WIND   - DIRECTION AND SPEED IN MILES PER HOUR (MPH)
VRB    - VARIABLE WIND DIRECTION
PRES   - MEAN SEA LEVEL PRESSURE IN INCHES OF MERCURY
         F - FALLING PRESSURE   R - RISING PRESSURE
         S - STEADY PRESSURE
VSB    - VISIBILITY IN MILES
HX     - HEAT INDEX IN FAHRENHEIT
WCI    - WIND CHILL INDEX IN FAHRENHEIT
N/A    - NOT AVAILABLE
AFB    - AIR FORCE BASE
         DAVIS-MONTHAN IS DAVIS-MONTHAN AIR FORCE BASE
CYN    - CANYON
MTNS   - MOUNTAINS
NCA    - NATIONAL CONSERVATION AREA
NR     - NEAR
VLY    - VALLEY
CONTL  - CONTINENTAL
PIMA CO DEQ - PIMA COUNTY DEPT OF ENVIRONMENTAL QUALITY



USA.gov is the U.S. government's official web portal to all federal, state and local government web resources and services.